Home > Time Zones > World Clock > Weather > Palau > Koror > Past weeks

Flag for Palau Weather past 2 weeks in Koror, Palau

Now
79 °F

Mostly cloudy.


Feels Like: 83 °F
Forecast: 80 / 86 °F
Wind: 5 mph from West

Location: Koror / Palau Island

Current Time: Aug 31, 2015 at 11:12:26 PM

Latest Report: Aug 31, 2015 at 9:50 PM


Visibility: 14 mi

Pressure: 29.87 "Hg

Humidity: 94%

Dew point: 77 °F

Location of KororLocation

Historic Weather in Koror — Graph

°F

Koror temperature yesterday

Maximum temperature yesterday: 88 °F (at 10:50 AM)
Minimum temperature yesterday: 79 °F (at 8:55 PM)
Average temperature yesterday: 84 °F

Past Weeks' High & Low Weather Summary

 TemperatureHumidityPressure
High88 °F (Aug 24, 11:50 AM)100% (Aug 24, 12:53 AM)29.94 "Hg (Aug 24, 12:53 AM)
Low73 °F (Aug 24, 12:53 AM)62% (Aug 25, 10:52 AM)29.70 "Hg (Aug 17, 2:50 PM)
Average82 °F82%29.83 "Hg
* Reported Aug 16 9:54 PM — Aug 31 9:50 PM, Koror, Weather by CustomWeather, © 2015

Note: Actual official high and low records may vary slightly from our data, if they occured in-between our weather recording intervals... More about our weather records

Advertising

Koror weather history for previous 24 hours

 ConditionsComfort  
Time TempWeatherWind HumidityBarometerVisibility
9:50 PM
Mon, Aug 31
79 °FMostly cloudy.5 mph94%29.87 "Hg14 mi
8:55 PM77 °FSprinkles. Mostly cloudy.7 mph94%29.84 "Hg10 mi
7:50 PM82 °FOvercast.6 mph79%29.84 "Hg14 mi
6:50 PM82 °FThunderstorms. Overcast.6 mph84%29.82 "Hg14 mi
5:52 PM82 °FThunderstorms. Cloudy.9 mph84%29.80 "Hg14 mi
4:53 PM84 °FCloudy.10 mph79%29.79 "Hg14 mi
3:50 PM84 °FMostly cloudy.13 mph79%29.77 "Hg14 mi
2:51 PM88 °FScattered showers. Mostly cloudy.8 mph70%29.78 "Hg14 mi
1:50 PM88 °FMostly cloudy.12 mph75%29.78 "Hg15 mi
12:50 PM88 °FBroken clouds.10 mph70%29.80 "Hg15 mi
11:50 AM86 °FBroken clouds.12 mph75%29.82 "Hg15 mi
10:50 AM88 °FPartly sunny.12 mph70%29.83 "Hg14 mi
9:50 AM86 °FMostly cloudy.9 mph79%29.83 "Hg14 mi
8:50 AM84 °FMostly cloudy.10 mph89%29.83 "Hg14 mi
6:50 AM79 °FBroken clouds.No wind94%29.82 "Hg14 mi
4:50 AM79 °FPartly cloudy.No wind94%29.80 "Hg14 mi
3:50 AM81 °FPartly cloudy.No wind89%29.80 "Hg14 mi
2:55 AM81 °FPartly cloudy.6 mph89%29.81 "Hg14 mi
12:52 AM79 °FWarm.7 mph94%29.82 "Hg14 mi
11:50 PM
Sun, Aug 30
79 °FMostly cloudy.No wind94%29.85 "Hg14 mi
Weather by CustomWeather, © 2015

See weather overviewHow to use our weather pages